Tiempo cada hora Abriola

Hoy, 22 Octubre, Jueves

Tiempo Temperatura Precipitaciones Viento Presión Humedad
00:00 +7°C° 0 mm 1 mps 662 mmHg 75%
01:00 +7°C° 0 mm 1 mps 662 mmHg 75%
02:00 +6°C° 0 mm 1 mps 661 mmHg 76%
03:00 +6°C° 0 mm 1 mps 661 mmHg 76%
04:00 +6°C° 0 mm 1 mps 661 mmHg 77%
05:00 +6°C° 0 mm 1 mps 661 mmHg 75%
06:00 +7°C° 0 mm 1 mps 661 mmHg 72%
07:00 +7°C° 0 mm 1 mps 662 mmHg 70%
08:00 +9°C° 0 mm 1 mps 663 mmHg 61%
09:00 +12°C° 0 mm 1 mps 663 mmHg 52%
10:00 +14°C° 0 mm 1 mps 664 mmHg 43%
11:00 +15°C° 0 mm 1 mps 665 mmHg 41%
12:00 +16°C° 0 mm 1 mps 665 mmHg 38%
13:00 +18°C° 0 mm 1 mps 665 mmHg 35%
14:00 +16°C° 0 mm 1 mps 664 mmHg 40%
15:00 +15°C° 0 mm 1 mps 664 mmHg 44%
16:00 +15°C° 0 mm 1 mps 664 mmHg 49%
17:00 +13°C° 0 mm 1 mps 663 mmHg 54%
18:00 +10°C° 0 mm 0 mps 663 mmHg 60%
19:00 +8°C° 0 mm 0 mps 662 mmHg 66%
20:00 +8°C° 0 mm 0 mps 662 mmHg 66%
21:00 +7°C° 0 mm 0 mps 662 mmHg 67%
22:00 +7°C° 0 mm 0 mps 662 mmHg 68%
23:00 +6°C° 0 mm 0 mps 662 mmHg 67%

Mañana, 23 Octubre, Viernes

Tiempo Temperatura Precipitaciones Viento Presión Humedad
00:00 +7°C° 0 mm 1 mps 662 mmHg 66%
01:00 +7°C° 0 mm 1 mps 661 mmHg 66%
02:00 +7°C° 0 mm 1 mps 661 mmHg 64%
03:00 +6°C° 0 mm 1 mps 661 mmHg 63%
04:00 +6°C° 0 mm 1 mps 660 mmHg 62%
05:00 +7°C° 0 mm 1 mps 661 mmHg 58%
06:00 +7°C° 0 mm 1 mps 661 mmHg 53%
07:00 +7°C° 0 mm 1 mps 661 mmHg 49%
08:00 +10°C° 0 mm 1 mps 662 mmHg 43%
09:00 +13°C° 0 mm 1 mps 663 mmHg 38%
10:00 +15°C° 0 mm 1 mps 664 mmHg 32%
11:00 +16°C° 0 mm 1 mps 664 mmHg 32%
12:00 +18°C° 0 mm 1 mps 664 mmHg 31%
13:00 +19°C° 0 mm 1 mps 664 mmHg 31%
14:00 +19°C° 0 mm 1 mps 663 mmHg 37%
15:00 +18°C° 0 mm 1 mps 663 mmHg 43%
16:00 +16°C° 0 mm 1 mps 662 mmHg 49%
17:00 +14°C° 0 mm 1 mps 662 mmHg 58%
18:00 +12°C° 0 mm 1 mps 661 mmHg 66%
19:00 +10°C° 0 mm 1 mps 660 mmHg 74%
20:00 +10°C° 0 mm 1 mps 660 mmHg 73%
21:00 +9°C° 0 mm 1 mps 660 mmHg 73%
22:00 +9°C° 0 mm 1 mps 660 mmHg 72%
23:00 +9°C° 0 mm 1 mps 660 mmHg 72%

Pasado mañana, 24 Octubre, Sábado

Tiempo Temperatura Precipitaciones Viento Presión Humedad
00:00 +9°C° 0 mm 1 mps 659 mmHg 72%
01:00 +9°C° 0 mm 1 mps 659 mmHg 72%
02:00 +9°C° 0 mm 1 mps 659 mmHg 71%
03:00 +9°C° 0 mm 1 mps 659 mmHg 71%
04:00 +9°C° 0 mm 1 mps 659 mmHg 70%
05:00 +9°C° 0 mm 1 mps 659 mmHg 71%
06:00 +9°C° 0 mm 1 mps 659 mmHg 72%
07:00 +9°C° 0 mm 1 mps 659 mmHg 73%
08:00 +11°C° 0 mm 1 mps 660 mmHg 69%
09:00 +13°C° 0 mm 1 mps 660 mmHg 64%
10:00 +15°C° 0 mm 1 mps 661 mmHg 59%
11:00 +16°C° 0 mm 2 mps 661 mmHg 59%
12:00 +16°C° 0 mm 2 mps 661 mmHg 60%
13:00 +17°C° 0 mm 2 mps 661 mmHg 60%
14:00 +16°C° 0 mm 2 mps 660 mmHg 64%
15:00 +15°C° 0 mm 2 mps 660 mmHg 67%
16:00 +15°C° 0 mm 2 mps 660 mmHg 71%
17:00 +13°C° 0 mm 2 mps 659 mmHg 77%
18:00 +12°C° 0 mm 2 mps 659 mmHg 84%
19:00 +9°C° 0 mm 2 mps 659 mmHg 91%
20:00 +9°C° 0 mm 2 mps 659 mmHg 92%
21:00 +8°C° 0 mm 2 mps 658 mmHg 93%
22:00 +8°C° 0 mm 2 mps 658 mmHg 95%
23:00 +9°C° 0 mm 1 mps 658 mmHg 94%

, 25 Octubre, Domingo

Tiempo Temperatura Precipitaciones Viento Presión Humedad
00:00 +8°C° 0 mm 1 mps 658 mmHg 94%
01:00 +8°C° 0 mm 1 mps 658 mmHg 93%
02:00 +8°C° 0 mm 1 mps 657 mmHg 93%
03:00 +7°C° 0 mm 1 mps 657 mmHg 92%
04:00 +7°C° 0 mm 1 mps 657 mmHg 92%
05:00 +7°C° 0 mm 1 mps 657 mmHg 90%
06:00 +7°C° 0 mm 1 mps 657 mmHg 88%
07:00 +7°C° 0 mm 1 mps 657 mmHg 87%
08:00 +9°C° 0 mm 1 mps 657 mmHg 76%
09:00 +11°C° 0 mm 1 mps 658 mmHg 66%
10:00 +13°C° 0 mm 1 mps 659 mmHg 55%
11:00 +14°C° 0 mm 1 mps 659 mmHg 52%
12:00 +15°C° 0 mm 1 mps 658 mmHg 49%
13:00 +15°C° 0 mm 1 mps 658 mmHg 46%
14:00 +15°C° 0 mm 1 mps 658 mmHg 51%
15:00 +14°C° 0 mm 1 mps 657 mmHg 56%
16:00 +13°C° 0 mm 1 mps 657 mmHg 61%
17:00 +12°C° 0.1 mm 1 mps 657 mmHg 68%
18:00 +11°C° 0.1 mm 1 mps 656 mmHg 76%
19:00 +9°C° 0.1 mm 0 mps 656 mmHg 83%
20:00 +9°C° 0 mm 1 mps 656 mmHg 85%
21:00 +8°C° 0 mm 1 mps 656 mmHg 87%
22:00 +8°C° 0 mm 1 mps 656 mmHg 90%
23:00 +7°C° 0 mm 1 mps 655 mmHg 91%

25 Octubre, Domingo

Tiempo Temperatura Precipitaciones Viento Presión Humedad
00:00 +8°C° 0 mm 1 mps 658 mmHg 94%
01:00 +8°C° 0 mm 1 mps 658 mmHg 93%
02:00 +8°C° 0 mm 1 mps 657 mmHg 93%
03:00 +7°C° 0 mm 1 mps 657 mmHg 92%
04:00 +7°C° 0 mm 1 mps 657 mmHg 92%
05:00 +7°C° 0 mm 1 mps 657 mmHg 90%
06:00 +7°C° 0 mm 1 mps 657 mmHg 88%
07:00 +7°C° 0 mm 1 mps 657 mmHg 87%
08:00 +9°C° 0 mm 1 mps 657 mmHg 76%
09:00 +11°C° 0 mm 1 mps 658 mmHg 66%
10:00 +13°C° 0 mm 1 mps 659 mmHg 55%
11:00 +14°C° 0 mm 1 mps 659 mmHg 52%
12:00 +15°C° 0 mm 1 mps 658 mmHg 49%
13:00 +15°C° 0 mm 1 mps 658 mmHg 46%
14:00 +15°C° 0 mm 1 mps 658 mmHg 51%
15:00 +14°C° 0 mm 1 mps 657 mmHg 56%
16:00 +13°C° 0 mm 1 mps 657 mmHg 61%
17:00 +12°C° 0.1 mm 1 mps 657 mmHg 68%
18:00 +11°C° 0.1 mm 1 mps 656 mmHg 76%
19:00 +9°C° 0.1 mm 0 mps 656 mmHg 83%
20:00 +9°C° 0 mm 1 mps 656 mmHg 85%
21:00 +8°C° 0 mm 1 mps 656 mmHg 87%
22:00 +8°C° 0 mm 1 mps 656 mmHg 90%
23:00 +7°C° 0 mm 1 mps 655 mmHg 91%

26 Octubre, Lunes

Tiempo Temperatura Precipitaciones Viento Presión Humedad
00:00 +7°C° 0 mm 1 mps 655 mmHg 92%
01:00 +7°C° 0 mm 1 mps 655 mmHg 93%
02:00 +7°C° 0 mm 1 mps 655 mmHg 93%
03:00 +6°C° 0 mm 1 mps 654 mmHg 93%
04:00 +6°C° 0 mm 1 mps 654 mmHg 93%
05:00 +6°C° 0 mm 1 mps 654 mmHg 92%
06:00 +6°C° 0 mm 1 mps 654 mmHg 92%
07:00 +6°C° 0 mm 1 mps 654 mmHg 91%
08:00 +9°C° 0 mm 1 mps 655 mmHg 81%
09:00 +10°C° 0 mm 2 mps 655 mmHg 70%
10:00 +13°C° 0 mm 2 mps 656 mmHg 59%
11:00 +13°C° 0 mm 2 mps 656 mmHg 57%
12:00 +13°C° 0 mm 3 mps 656 mmHg 55%
13:00 +14°C° 0 mm 3 mps 656 mmHg 53%
14:00 +13°C° 0 mm 3 mps 655 mmHg 57%
15:00 +12°C° 0 mm 3 mps 655 mmHg 61%
16:00 +12°C° 0 mm 3 mps 654 mmHg 65%
17:00 +10°C° 0 mm 3 mps 654 mmHg 73%
18:00 +8°C° 0 mm 2 mps 653 mmHg 82%
19:00 +7°C° 0 mm 2 mps 653 mmHg 90%
20:00 +7°C° 0 mm 2 mps 653 mmHg 91%
21:00 +7°C° 0 mm 2 mps 653 mmHg 91%
22:00 +7°C° 0 mm 2 mps 652 mmHg 92%
23:00 +7°C° 0 mm 2 mps 652 mmHg 89%

27 Octubre, Martes

Tiempo Temperatura Precipitaciones Viento Presión Humedad
00:00 +7°C° 0 mm 2 mps 652 mmHg 86%
01:00 +6°C° 0 mm 2 mps 651 mmHg 84%
02:00 +7°C° 1 mm 2 mps 651 mmHg 84%
03:00 +7°C° 1 mm 2 mps 651 mmHg 84%
04:00 +7°C° 1 mm 2 mps 651 mmHg 84%
05:00 +7°C° 2.4 mm 2 mps 651 mmHg 87%
06:00 +7°C° 2.4 mm 2 mps 651 mmHg 90%
07:00 +8°C° 2.4 mm 1 mps 652 mmHg 92%
08:00 +7°C° 0.7 mm 2 mps 652 mmHg 89%
09:00 +7°C° 0.7 mm 2 mps 652 mmHg 86%
10:00 +7°C° 0.7 mm 3 mps 652 mmHg 82%
11:00 +7°C° 0.7 mm 2 mps 652 mmHg 82%
12:00 +7°C° 0.7 mm 2 mps 652 mmHg 81%
13:00 +7°C° 0.7 mm 2 mps 652 mmHg 81%
14:00 +7°C° 0.2 mm 2 mps 651 mmHg 80%
15:00 +7°C° 0.2 mm 2 mps 651 mmHg 79%
16:00 +8°C° 0.2 mm 1 mps 651 mmHg 78%
17:00 +7°C° 0.1 mm 1 mps 651 mmHg 82%
18:00 +7°C° 0.1 mm 1 mps 651 mmHg 86%
19:00 +6°C° 0.1 mm 1 mps 650 mmHg 90%
20:00 +5°C° 0 mm 1 mps 650 mmHg 91%
21:00 +5°C° 0 mm 1 mps 650 mmHg 91%
22:00 +4°C° 0 mm 1 mps 650 mmHg 92%
23:00 +3°C° 0 mm 2 mps 650 mmHg 91%
Mostrar más

Necesitamos Su Consentimiento

Meteoprog y nuestros Proveedores de Servicios pueden almacenar y acceder a sus datos personales como cookies, identificadores de dispositivo u otras tecnologías similares de su dispositivo y procesar dichos datos para personalizar contenido y anuncios, además de ofrecer funciones de redes sociales y analizar el tráfico.

  • Almacenar y/o acceder a información en su dispositivo

    Se puede almacenar o acceder a cookies, identificadores de dispositivo u otra información de su dispositivo para los fines anteriormente indicados.

  • Anuncios y contenido personalizados, medición de anuncios y contenido, percepciones del público, y desarrollo de productos

    Los anuncios y el contenido pueden personalizarse en base a su perfil. Se pueden añadir más datos para personalizar mejor los anuncios y contenidos. Se puede medir el rendimiento de los anuncios y contenidos. Se puede obtener la percepción sobre el público que ha visto los anuncios y contenidos. Dichos datos pueden usarse para desarrollar o mejorar la experiencia del usuario, sistemas y software.

Al hacer clic en ‘Estoy De Acuerdo’ usted permitirá el uso de las cookies, identificadores de dispositivo, balizas web u otras tecnologías similares indicadas. Su configuración puede cambiarse desde el navegador de su dispositivo.

Para ciertos fines, los intereses legítimos pueden ser considerados por encima del consentimiento. Puede leer más sobre ello en nuestra Política de Privacidad y Cookies.